Wind_Speed
42 44 38 40 40 40 39 41 39 33 27 19 20 22 27 30 34 33 37 30 31 39 42 44 50 45 48 44 46 55 56 60 53 43 41 33 36 40 48 53 61 66 72 81 84
40 42 37 41 40 37 37 37 34 30 21 18 21 20 27 30 27 26 25 35 34 39 48 47 50 43 46 46 46 53 53 48 50 47 44 36 36 38 41 48 58 65 73 75 78
39 39 37 42 39 36 34 31 29 25 16 20 25 22 18 17 18 21 36 30 36 44 43 57 47 50 51 47 49 58 47 47 48 46 43 39 36 38 41 43 54 61 69 74 75
40 35 38 36 35 33 28 27 27 20 18 18 18 12 10 16 21 30 29 37 49 55 61 55 58 54 55 49 46 50 41 40 38 43 41 40 41 41 45 44 52 62 62 71 72
40 38 37 34 31 29 25 25 25 20 19 17 15 17 16 17 22 22 32 43 46 59 53 68 60 57 58 55 48 43 47 40 35 37 39 38 38 42 47 46 53 63 62 68 68
38 37 36 30 28 27 24 24 28 20 16 17 19 17 19 20 23 26 35 44 53 59 61 70 70 64 68 55 50 47 46 37 36 36 36 33 35 39 47 47 52 60 63 63 65
38 35 33 29 26 23 22 21 23 17 14 16 16 16 16 15 21 32 40 45 56 59 56 71 71 74 68 64 49 49 44 37 38 37 34 30 31 38 46 50 53 60 64 64 67
37 35 34 25 23 22 22 20 19 12 13 16 13 9 14 15 24 34 44 53 59 64 75 74 70 71 70 69 54 48 43 36 38 33 32 25 30 36 44 51 54 59 61 64 68
38 34 32 23 22 19 21 18 16 11 13 17 9 13 17 25 35 35 43 50 60 71 82 84 74 76 70 74 55 52 46 38 38 29 26 23 27 33 40 51 56 58 60 63 68
31 32 27 23 22 19 20 19 13 12 13 13 12 16 21 19 27 40 49 56 64 71 80 83 83 76 75 77 63 56 50 44 43 29 21 20 24 30 37 45 56 60 60 63 68
29 23 24 19 19 14 17 17 14 16 18 12 17 19 23 26 36 44 52 61 66 72 76 89 84 78 80 78 71 57 49 46 46 34 21 18 22 28 36 43 52 60 63 64 69
29 22 19 20 21 19 14 17 20 17 16 23 21 19 23 29 37 47 54 64 68 73 76 88 80 83 80 79 73 61 51 48 46 40 25 16 19 26 33 41 48 57 63 65 69
27 25 21 20 23 17 17 18 22 26 18 19 19 18 31 39 45 50 52 61 71 75 81 88 90 87 76 78 74 67 54 50 48 43 30 17 16 22 30 40 48 54 63 66 67
27 28 25 24 18 16 18 21 22 20 16 17 21 26 38 44 50 53 56 61 72 76 79 88 92 79 83 77 72 68 59 53 52 45 31 19 13 18 28 36 45 51 60 66 67
27 26 24 27 18 14 17 15 12 15 10 18 26 27 30 39 50 53 56 63 71 77 83 87 92 88 81 75 70 69 62 55 55 49 36 25 14 12 22 33 41 48 56 64 68
33 32 15 24 31 25 14 12 13 18 21 24 28 33 39 43 48 52 57 66 66 76 83 89 91 96 91 78 70 68 64 58 57 52 42 29 20 12 18 29 40 45 51 59 68
37 33 24 25 20 29 26 24 23 23 20 23 28 33 40 47 50 50 60 63 68 75 83 88 91 91 96 82 68 66 65 60 59 52 43 32 23 15 17 23 32 44 47 51 58
35 32 30 30 19 30 34 28 27 22 24 24 29 29 37 43 50 59 62 63 69 80 87 90 89 93 89 91 67 66 66 61 60 51 44 33 26 19 15 21 26 36 44 48 50
35 36 28 27 21 15 28 34 30 25 23 29 30 33 38 42 49 58 65 68 73 81 89 91 90 96 99 87 65 63 64 62 59 51 44 35 29 22 16 15 21 28 37 44 48
42 42 37 31 26 19 23 30 33 29 25 27 28 31 40 45 46 55 64 67 75 83 90 94 95 97 91 87 63 59 61 62 59 52 44 36 30 24 16 13 13 20 29 36 43
45 46 47 37 28 27 29 28 32 28 26 31 32 31 38 44 55 57 63 66 75 85 88 94 99 94 89 76 59 56 60 60 58 53 46 37 30 25 19 12 9 10 18 28 35
51 45 51 35 34 32 31 34 31 31 26 31 33 32 38 45 53 57 56 64 74 83 90 94 101 99 78 70 58 54 57 58 57 51 48 40 32 25 19 15 8 5 7 15 23
54 55 47 42 40 39 39 35 36 36 29 31 36 33 39 46 50 60 63 66 77 84 91 92 96 91 77 66 56 52 54 56 55 51 48 41 34 27 22 16 11 8 5 8 12
53 54 47 43 43 43 38 40 42 39 34 35 41 41 44 47 53 58 66 72 78 85 90 97 98 91 75 61 51 47 50 53 53 51 50 43 36 30 23 19 14 11 9 9 11
58 52 49 46 48 43 42 41 41 44 44 44 45 45 48 49 55 63 68 78 77 87 91 96 98 83 66 56 48 45 47 49 50 47 47 46 39 31 25 21 19 18 16 12 14
61 56 50 53 54 45 45 47 43 45 51 52 55 56 53 61 65 67 70 76 83 89 92 96 98 83 65 52 44 43 45 46 48 49 43 45 42 33 26 23 21 22 20 21 20
65 59 59 55 52 51 47 49 50 48 47 52 57 60 62 59 65 75 78 81 82 86 90 95 93 79 63 50 40 41 41 44 46 48 48 44 43 37 29 23 21 20 22 25 26
Wind_Direction
313 321 319 321 321 324 327 331 330 323 314 296 307 300 289 283 298 305 309 329 328 329 342 346 354 346 349 335 322 316 310 305 305 299 290 275 256 252 250 244 236 230 229 231 234
311 318 318 318 320 324 329 331 328 319 311 309 314 307 288 292 303 309 319 330 326 342 336 343 345 346 345 339 327 317 314 306 300 295 291 282 259 253 246 242 233 229 227 229 231
305 316 315 317 320 325 328 331 323 322 311 311 315 299 308 333 332 331 334 328 340 348 351 354 341 356 353 341 327 319 311 295 293 290 286 278 261 255 244 237 233 230 227 227 229
307 312 309 316 323 324 326 328 322 318 304 311 337 334 321 336 335 325 339 334 333 351 1 1 353 337 349 338 329 321 314 306 292 289 284 273 261 248 243 231 229 230 227 226 226
306 311 312 319 321 322 323 324 319 315 312 313 322 321 309 329 329 328 325 347 350 0 349 360 342 349 356 348 342 330 320 313 299 291 285 275 260 244 234 230 224 227 225 223 222
304 308 311 316 318 318 319 320 317 312 317 316 301 309 305 315 327 335 356 353 357 356 351 355 354 347 353 349 343 337 326 321 312 306 295 277 254 234 228 227 222 224 226 220 219
301 305 311 315 315 315 321 319 313 312 314 321 312 311 315 311 311 344 357 352 357 356 343 348 348 348 356 359 350 340 331 324 320 314 300 277 248 227 219 222 221 221 224 221 216
297 301 308 311 307 319 317 318 319 320 314 314 313 337 343 334 337 355 354 355 356 357 1 354 349 347 356 359 352 343 338 331 332 319 302 275 244 224 216 217 219 220 222 222 218
296 295 309 308 304 321 320 320 313 313 326 321 312 316 317 316 321 328 351 356 2 360 1 356 355 350 351 358 352 345 342 337 343 323 297 272 244 223 218 212 215 221 220 220 220
293 298 305 306 296 313 324 321 320 322 323 315 318 317 317 337 349 359 359 357 356 358 359 359 2 353 351 355 352 351 349 341 348 335 302 270 244 224 217 214 214 216 220 220 220
289 298 302 296 288 303 318 330 322 324 306 300 322 340 339 351 6 5 5 4 360 355 355 359 356 353 352 350 351 352 353 347 349 344 320 276 250 226 220 215 215 216 218 218 219
285 293 291 293 281 289 292 310 320 317 312 320 320 324 353 358 2 356 355 355 354 354 356 356 357 355 352 348 350 351 354 351 351 347 336 297 256 233 221 218 217 217 218 219 219
279 290 287 307 279 269 280 290 301 304 314 306 337 347 348 353 353 352 350 351 350 351 353 354 358 357 346 349 349 348 352 353 353 351 339 317 266 242 224 220 218 220 219 221 219
281 282 281 272 293 274 285 291 305 290 321 314 342 346 345 342 356 348 348 352 351 353 352 354 355 353 352 349 347 346 349 354 352 353 343 341 297 249 228 219 221 220 219 219 223
276 285 282 267 271 307 307 312 290 277 338 355 6 359 332 350 354 353 350 355 350 352 352 352 357 355 349 349 348 344 348 353 351 353 350 348 336 275 232 222 220 222 222 222 222
269 273 266 274 270 266 310 305 306 304 278 277 309 343 348 346 343 346 344 350 345 348 349 351 355 355 354 349 347 344 347 353 350 352 352 352 351 306 242 227 220 221 225 226 225
263 270 280 295 269 263 267 324 307 318 295 299 300 310 329 340 346 345 350 349 347 348 349 351 353 353 353 351 346 344 346 351 350 350 350 352 353 327 265 239 230 222 223 226 227
262 265 277 290 292 264 263 292 325 308 300 304 304 324 309 333 339 343 341 348 344 344 346 346 351 352 352 351 345 344 345 349 349 349 349 351 353 340 297 257 239 226 224 226 226
260 259 281 287 290 305 261 262 323 325 307 302 303 312 325 323 332 342 342 344 341 343 343 342 348 347 349 350 345 344 344 346 348 350 348 347 352 347 322 275 246 232 225 226 226
264 258 280 290 286 294 300 270 296 299 303 310 309 302 321 328 329 335 339 343 342 342 342 344 346 345 348 349 345 344 343 347 348 351 350 347 348 347 340 316 273 242 229 226 227
275 255 281 284 297 284 294 302 298 296 296 293 317 300 309 320 328 333 332 340 337 340 341 342 341 347 346 348 344 344 345 346 348 352 352 348 346 344 343 333 317 261 239 232 228
273 269 277 288 296 294 289 294 303 302 292 284 308 300 313 312 322 327 330 335 335 334 339 340 341 344 343 347 343 345 346 347 348 352 355 350 344 340 339 335 319 313 242 231 233
270 268 277 273 289 294 295 293 296 304 297 290 308 313 311 318 325 329 329 332 330 336 337 336 339 341 343 342 343 348 349 348 349 350 356 352 344 336 331 328 314 303 265 205 212
264 271 282 279 281 287 294 295 298 289 297 300 302 308 317 323 322 321 329 330 330 331 334 334 335 337 340 338 340 346 351 348 352 351 354 354 348 335 327 315 301 284 269 255 220
266 278 273 279 282 280 289 291 292 284 289 294 305 310 315 317 318 321 324 328 328 330 331 331 333 338 338 336 338 345 351 348 349 354 353 353 350 342 326 315 297 281 267 265 247
263 270 270 271 274 283 284 290 289 288 294 287 295 305 313 314 315 318 320 324 326 328 329 328 331 337 336 333 336 345 348 349 346 351 353 353 354 347 335 322 304 287 268 263 255
264 267 264 272 268 279 284 286 289 285 293 294 295 298 305 307 312 312 316 320 323 325 327 328 329 335 334 329 334 343 346 348 347 349 354 354 354 354 344 333 314 295 272 264 262
Height
10825 10819 10818 10812 10810 10805 10802 10798 10793 10788 10784 10782 10780 10779 10777 10774 10774 10771 10768 10763 10757 10749 10741 10732 10722 10716 10705 10699 10688 10680 10670 10660 10652 10649 10650 10649 10650 10653 10657 10663 10671 10680 10686 10693 10704
10820 10814 10813 10807 10804 10800 10797 10794 10789 10785 10781 10779 10777 10774 10773 10772 10770 10767 10764 10760 10752 10745 10737 10728 10719 10710 10700 10690 10679 10668 10656 10645 10637 10633 10632 10632 10634 10636 10639 10648 10656 10665 10671 10679 10691
10813 10809 10807 10804 10798 10795 10791 10789 10784 10780 10778 10776 10773 10771 10771 10768 10766 10763 10759 10754 10748 10738 10728 10719 10708 10700 10688 10675 10665 10655 10643 10632 10622 10618 10616 10617 10619 10620 10624 10632 10642 10649 10658 10666 10678
10808 10804 10800 10798 10793 10789 10786 10783 10781 10776 10774 10772 10770 10768 10766 10764 10763 10759 10754 10747 10738 10728 10718 10707 10697 10688 10678 10664 10652 10644 10631 10619 10611 10603 10602 10603 10603 10603 10609 10614 10625 10632 10643 10653 10663
10804 10798 10795 10793 10788 10785 10783 10779 10776 10773 10771 10770 10768 10766 10764 10761 10758 10754 10747 10739 10732 10720 10708 10698 10686 10677 10664 10652 10639 10629 10616 10604 10597 10591 10587 10584 10585 10587 10592 10599 10608 10616 10628 10638 10652
10798 10793 10791 10787 10784 10780 10778 10775 10773 10770 10767 10766 10764 10762 10760 10758 10752 10747 10741 10733 10724 10710 10698 10687 10676 10665 10653 10641 10629 10615 10604 10592 10584 10577 10570 10567 10565 10571 10578 10586 10595 10604 10615 10630 10642
10791 10788 10785 10783 10779 10777 10773 10770 10769 10766 10764 10762 10759 10757 10754 10750 10745 10741 10734 10725 10714 10702 10691 10681 10667 10654 10642 10628 10615 10604 10591 10581 10571 10561 10554 10551 10551 10556 10563 10572 10581 10589 10601 10615 10628
10785 10783 10780 10777 10775 10773 10769 10766 10764 10761 10759 10758 10755 10753 10750 10744 10741 10734 10725 10717 10708 10697 10686 10672 10655 10642 10630 10621 10607 10593 10581 10571 10559 10549 10542 10539 10540 10544 10549 10559 10569 10577 10588 10600 10614
10779 10776 10775 10772 10771 10768 10765 10762 10760 10757 10755 10754 10752 10748 10744 10739 10734 10730 10720 10710 10699 10688 10678 10666 10647 10634 10619 10612 10599 10584 10571 10561 10551 10541 10534 10530 10531 10534 10538 10546 10556 10566 10576 10586 10598
10772 10769 10770 10768 10767 10764 10761 10758 10756 10755 10752 10749 10747 10743 10737 10733 10728 10720 10712 10702 10692 10681 10671 10660 10643 10628 10617 10603 10590 10575 10563 10553 10541 10533 10527 10523 10523 10525 10528 10534 10544 10553 10563 10575 10583
10764 10763 10763 10762 10761 10759 10758 10756 10754 10752 10749 10745 10742 10738 10734 10728 10722 10716 10706 10696 10685 10675 10663 10653 10638 10619 10606 10597 10583 10572 10559 10548 10535 10526 10520 10516 10516 10517 10520 10524 10532 10541 10550 10561 10572
10760 10759 10756 10756 10756 10753 10752 10751 10749 10747 10745 10741 10738 10734 10730 10722 10715 10706 10697 10691 10680 10668 10657 10647 10629 10616 10603 10591 10577 10565 10553 10543 10532 10520 10514 10509 10507 10509 10511 10516 10522 10531 10539 10549 10560
10754 10752 10751 10749 10749 10747 10746 10746 10744 10742 10740 10737 10733 10729 10724 10716 10709 10702 10693 10685 10675 10663 10652 10640 10625 10612 10599 10587 10571 10558 10548 10539 10528 10517 10508 10502 10498 10499 10503 10507 10512 10518 10527 10536 10546
10747 10746 10744 10743 10742 10741 10740 10739 10736 10736 10734 10732 10729 10724 10716 10711 10703 10695 10688 10677 10669 10657 10647 10636 10620 10605 10593 10581 10567 10552 10542 10532 10523 10514 10504 10496 10492 10491 10495 10499 10504 10509 10515 10523 10534
10739 10739 10738 10737 10738 10736 10735 10733 10731 10730 10729 10726 10720 10716 10711 10706 10699 10691 10683 10672 10664 10652 10642 10630 10616 10601 10588 10575 10563 10549 10538 10528 10519 10510 10500 10492 10486 10485 10488 10492 10496 10501 10506 10513 10520
10730 10732 10730 10730 10730 10730 10729 10726 10725 10724 10720 10717 10714 10710 10704 10700 10692 10684 10677 10668 10659 10648 10637 10624 10613 10600 10586 10574 10559 10547 10535 10524 10516 10506 10496 10489 10484 10481 10482 10485 10489 10494 10499 10504 10511
10721 10724 10723 10723 10722 10722 10722 10720 10718 10715 10713 10711 10707 10704 10698 10693 10686 10679 10672 10661 10654 10645 10634 10621 10609 10598 10587 10571 10558 10546 10533 10523 10514 10505 10496 10487 10482 10479 10477 10478 10481 10485 10491 10496 10501
10712 10715 10715 10714 10714 10713 10712 10714 10710 10707 10705 10702 10699 10696 10692 10687 10679 10672 10666 10657 10648 10638 10629 10618 10607 10596 10583 10571 10556 10542 10530 10520 10512 10504 10495 10487 10480 10476 10474 10474 10475 10478 10483 10488 10493
10702 10704 10704 10704 10703 10702 10702 10702 10700 10699 10695 10692 10690 10688 10684 10679 10673 10666 10659 10651 10643 10635 10625 10615 10602 10592 10584 10568 10557 10542 10530 10519 10510 10501 10492 10485 10479 10474 10471 10469 10470 10471 10474 10479 10484
10691 10692 10693 10693 10692 10691 10692 10692 10691 10688 10685 10684 10682 10680 10676 10672 10667 10661 10654 10645 10639 10631 10620 10609 10600 10589 10578 10566 10555 10543 10530 10517 10508 10499 10491 10484 10478 10474 10470 10467 10466 10466 10468 10472 10477
10678 10680 10681 10682 10681 10680 10680 10680 10679 10677 10675 10674 10672 10671 10668 10663 10658 10653 10648 10640 10634 10626 10616 10607 10596 10584 10574 10564 10554 10541 10529 10517 10509 10498 10489 10482 10477 10473 10469 10466 10464 10463 10464 10467 10470
10663 10668 10668 10668 10668 10668 10667 10667 10667 10666 10663 10663 10663 10662 10660 10657 10650 10647 10641 10635 10628 10622 10613 10600 10591 10582 10570 10561 10551 10539 10528 10517 10507 10499 10490 10481 10475 10471 10468 10466 10464 10463 10462 10462 10464
10650 10653 10652 10653 10654 10655 10656 10655 10654 10655 10653 10652 10652 10651 10649 10646 10642 10638 10634 10627 10623 10615 10607 10597 10590 10579 10568 10558 10549 10538 10527 10517 10508 10499 10490 10482 10475 10469 10466 10464 10463 10462 10460 10460 10460
10635 10637 10636 10638 10641 10642 10643 10642 10643 10641 10641 10640 10640 10639 10636 10635 10633 10630 10625 10621 10615 10608 10601 10594 10585 10577 10567 10558 10549 10539 10529 10518 10509 10498 10490 10482 10474 10468 10464 10461 10460 10460 10459 10458 10457
10617 10621 10620 10624 10625 10628 10630 10628 10629 10629 10628 10628 10627 10628 10626 10624 10623 10621 10617 10615 10609 10603 10597 10589 10583 10574 10564 10556 10547 10539 10529 10520 10510 10501 10490 10482 10473 10467 10462 10458 10456 10455 10455 10455 10454
10601 10605 10604 10608 10611 10613 10615 10614 10616 10616 10615 10615 10615 10614 10614 10612 10611 10610 10609 10607 10602 10595 10590 10584 10578 10571 10562 10553 10546 10539 10529 10520 10511 10501 10492 10482 10472 10465 10460 10455 10452 10450 10450 10450 10450
10583 10586 10587 10593 10596 10598 10600 10601 10601 10602 10602 10601 10601 10601 10601 10601 10600 10600 10598 10597 10595 10590 10585 10579 10574 10568 10559 10551 10544 10537 10528 10519 10512 10501 10491 10482 10473 10465 10457 10452 10449 10445 10443 10443 10443